Location: Munkebjergskolens Observatorium
(55.3864°N, 10.3987°E)
Time: 04:12:46
(UTC+02:00)

QB50P2 - Pass Details

Date: 04 April 2023
Orbit: 581 x 596 km, 98.0° (Epoch: 31 May)

Event Time Altitude Azimuth Distance (km) Brightness Sun altitude
Rises 05:21:33 0° 4° (N) 2,841 ? -11.7°
Reaches altitude 10° 05:25:00 10° 333° (NNW) 1,929 ? -11.3°
Maximum altitude 05:26:35 12° 311° (NW) 1,798 ? -11.1°
Drops below altitude 10° 05:28:09 10° 289° (WNW) 1,921 ? -10.9°
Enters shadow 05:28:41 - 282° (WNW) 2,014 ? -10.8°
